Temp
-10 -9 -10 -9 -10 -10 -9 -9 -9 -9 -9 -9 -9 -9 -9 -9 -9 -8 -9 -9 -9 -9 -8 -9 -9 -9 -9 -9 -8 -8 -8 -8 -7 -7 -8 -7 -7 -7 -6 -6 -6 -5 -6 -6 -7 -6 -5 -5 -4
-10 -10 -10 -10 -10 -10 -9 -9 -9 -9 -10 -10 -10 -9 -9 -9 -10 -9 -9 -9 -9 -9 -9 -8 -9 -9 -9 -9 -9 -8 -8 -8 -8 -8 -7 -8 -7 -7 -6 -6 -6 -6 -6 -6 -6 -6 -5 -5 -4
-10 -10 -10 -10 -10 -9 -9 -9 -9 -9 -9 -9 -10 -10 -9 -10 -9 -10 -10 -10 -9 -9 -10 -10 -9 -9 -9 -9 -8 -8 -8 -8 -8 -7 -8 -8 -8 -7 -7 -7 -7 -6 -6 -5 -6 -6 -6 -5 -4
-10 -10 -10 -9 -9 -9 -9 -9 -9 -9 -9 -9 -9 -10 -9 -9 -9 -10 -10 -10 -10 -9 -9 -10 -10 -9 -9 -9 -9 -8 -8 -8 -8 -8 -7 -8 -7 -7 -7 -7 -7 -6 -6 -6 -5 -5 -6 -6 -4
-10 -10 -10 -9 -9 -9 -9 -9 -9 -9 -9 -9 -9 -9 -9 -10 -10 -10 -9 -9 -9 -9 -9 -10 -10 -10 -10 -9 -9 -8 -8 -8 -8 -8 -8 -8 -8 -7 -7 -7 -7 -7 -6 -6 -6 -5 -5 -6 -6
-10 -10 -9 -9 -9 -9 -9 -9 -9 -9 -9 -10 -9 -9 -9 -9 -10 -9 -9 -9 -9 -10 -10 -10 -10 -10 -10 -10 -9 -9 -8 -8 -8 -8 -8 -8 -8 -7 -7 -7 -7 -8 -6 -6 -6 -6 -5 -5 -6
-10 -10 -10 -9 -10 -10 -10 -10 -10 -10 -10 -10 -10 -9 -9 -9 -9 -9 -9 -10 -9 -10 -10 -10 -10 -10 -10 -10 -9 -9 -9 -7 -8 -8 -8 -8 -8 -8 -8 -7 -7 -7 -7 -6 -6 -6 -6 -5 -5
-10 -10 -10 -10 -10 -10 -10 -10 -10 -10 -10 -10 -10 -10 -10 -9 -9 -9 -9 -9 -9 -10 -10 -10 -10 -10 -10 -9 -9 -9 -9 -8 -8 -8 -8 -8 -8 -8 -8 -8 -7 -7 -7 -7 -6 -6 -6 -6 -6
-11 -10 -10 -10 -10 -10 -10 -10 -10 -10 -10 -10 -10 -10 -10 -10 -10 -10 -10 -10 -10 -10 -10 -10 -10 -10 -10 -9 -9 -9 -8 -9 -8 -8 -8 -8 -8 -8 -8 -8 -8 -7 -7 -7 -7 -6 -6 -6 -6
-11 -11 -10 -10 -11 -10 -10 -10 -10 -10 -10 -10 -10 -10 -10 -10 -10 -10 -10 -10 -10 -10 -10 -10 -10 -10 -10 -9 -9 -9 -8 -9 -8 -8 -9 -9 -8 -8 -8 -8 -8 -7 -7 -7 -7 -7 -6 -6 -6
-11 -11 -11 -11 -11 -11 -11 -11 -11 -10 -10 -10 -10 -10 -10 -10 -10 -10 -10 -10 -10 -10 -10 -10 -10 -10 -10 -10 -9 -8 -9 -8 -9 -9 -8 -9 -9 -8 -8 -8 -8 -8 -7 -7 -7 -7 -7 -7 -6
-11 -11 -11 -11 -11 -11 -11 -11 -11 -11 -10 -10 -10 -10 -11 -11 -10 -10 -10 -10 -10 -10 -10 -11 -10 -10 -11 -11 -10 -9 -9 -9 -9 -9 -9 -8 -8 -9 -8 -8 -8 -8 -7 -7 -7 -7 -7 -7 -6
-11 -11 -11 -11 -11 -11 -11 -11 -11 -11 -11 -11 -10 -11 -11 -11 -11 -11 -11 -11 -11 -11 -11 -11 -11 -11 -12 -12 -11 -11 -10 -10 -9 -9 -9 -8 -9 -9 -8 -9 -8 -9 -8 -7 -7 -7 -7 -7 -7
-11 -11 -11 -11 -11 -11 -11 -11 -11 -11 -11 -11 -11 -11 -11 -11 -11 -11 -11 -11 -11 -11 -11 -11 -11 -11 -12 -13 -13 -12 -11 -11 -10 -9 -9 -8 -9 -9 -8 -9 -9 -8 -8 -7 -7 -7 -7 -7 -7
-11 -11 -11 -11 -11 -11 -11 -11 -11 -11 -11 -11 -11 -11 -11 -11 -11 -11 -11 -11 -11 -12 -11 -11 -12 -12 -12 -13 -14 -13 -13 -12 -11 -10 -8 -8 -9 -9 -9 -9 -8 -8 -8 -8 -7 -7 -7 -7 -7
-12 -12 -12 -12 -12 -12 -11 -12 -11 -11 -11 -11 -11 -11 -11 -11 -11 -11 -11 -12 -12 -12 -12 -12 -12 -12 -13 -14 -14 -14 -14 -13 -11 -11 -10 -10 -9 -9 -9 -9 -9 -8 -8 -8 -8 -8 -7 -8 -7
-12 -12 -12 -11 -12 -12 -12 -12 -11 -11 -11 -11 -12 -12 -11 -12 -12 -12 -12 -12 -12 -12 -12 -12 -12 -13 -13 -14 -15 -15 -14 -14 -13 -11 -11 -11 -10 -10 -9 -9 -9 -8 -9 -9 -8 -8 -8 -8 -8
-12 -12 -12 -11 -11 -12 -12 -12 -12 -11 -11 -11 -12 -12 -12 -12 -12 -12 -12 -12 -12 -12 -12 -12 -13 -13 -14 -14 -15 -16 -15 -14 -14 -12 -12 -11 -10 -10 -9 -9 -9 -9 -9 -9 -9 -9 -8 -8 -8
-12 -12 -12 -12 -11 -11 -11 -12 -12 -12 -12 -12 -12 -12 -12 -12 -12 -12 -12 -12 -12 -13 -13 -13 -13 -13 -14 -15 -15 -16 -16 -15 -13 -14 -13 -12 -11 -11 -10 -9 -10 -9 -9 -9 -9 -9 -8 -8 -8
-12 -12 -12 -12 -12 -12 -11 -12 -13 -12 -12 -13 -12 -12 -13 -12 -12 -13 -12 -13 -13 -13 -13 -13 -13 -13 -14 -15 -15 -15 -16 -16 -14 -13 -13 -12 -12 -11 -10 -10 -10 -9 -9 -9 -9 -9 -9 -8 -8
-13 -12 -12 -12 -12 -12 -11 -11 -13 -13 -13 -13 -13 -13 -13 -13 -13 -13 -13 -13 -13 -13 -13 -13 -13 -13 -13 -14 -15 -15 -16 -16 -16 -13 -13 -13 -11 -11 -12 -11 -10 -10 -9 -9 -9 -9 -9 -8 -8
-13 -13 -13 -13 -12 -12 -12 -11 -12 -13 -13 -13 -13 -13 -14 -13 -13 -13 -13 -13 -13 -13 -13 -13 -13 -13 -13 -14 -15 -15 -15 -16 -16 -15 -12 -13 -13 -12 -12 -11 -11 -10 -10 -10 -9 -10 -10 -9 -8
-14 -13 -13 -13 -13 -13 -13 -12 -12 -13 -14 -14 -13 -14 -14 -13 -13 -13 -14 -13 -14 -14 -14 -13 -13 -13 -14 -14 -14 -15 -15 -15 -16 -15 -14 -13 -13 -12 -12 -11 -12 -12 -11 -10 -9 -9 -9 -10 -9
-14 -14 -14 -14 -14 -13 -13 -13 -12 -13 -14 -14 -13 -13 -14 -14 -13 -14 -14 -14 -14 -14 -14 -14 -14 -14 -14 -14 -14 -15 -15 -15 -16 -15 -15 -13 -13 -13 -11 -11 -12 -12 -12 -10 -10 -10 -10 -11 -10
-15 -15 -15 -14 -14 -13 -13 -13 -13 -14 -14 -14 -14 -14 -14 -14 -14 -14 -14 -15 -15 -14 -14 -14 -14 -14 -14 -14 -14 -14 -15 -15 -15 -16 -15 -14 -13 -12 -12 -11 -12 -13 -12 -11 -10 -10 -10 -11 -11
-15 -16 -16 -16 -15 -15 -14 -13 -14 -14 -15 -16 -15 -15 -15 -15 -15 -15 -15 -15 -15 -15 -15 -15 -15 -14 -15 -14 -14 -14 -14 -15 -15 -15 -16 -15 -14 -13 -12 -12 -12 -12 -12 -11 -10 -11 -11 -10 -10
-15 -16 -17 -16 -16 -15 -14 -14 -14 -15 -15 -16 -16 -16 -15 -15 -15 -15 -15 -15 -15 -16 -16 -15 -15 -15 -15 -15 -14 -14 -14 -14 -15 -15 -16 -16 -15 -14 -12 -12 -12 -13 -12 -11 -12 -12 -12 -11 -11
-17 -16 -16 -17 -16 -15 -14 -14 -13 -15 -16 -17 -17 -16 -15 -15 -15 -15 -16 -16 -16 -16 -16 -16 -16 -16 -16 -15 -15 -15 -15 -15 -15 -16 -15 -16 -16 -14 -14 -12 -11 -11 -13 -12 -12 -12 -12 -12 -12
-17 -16 -17 -18 -17 -16 -15 -14 -14 -16 -17 -17 -17 -16 -16 -16 -16 -16 -16 -16 -16 -16 -16 -17 -17 -17 -17 -16 -16 -16 -16 -16 -16 -16 -16 -17 -16 -16 -15 -14 -12 -12 -13 -13 -12 -13 -13 -13 -12
-17 -17 -18 -18 -17 -17 -16 -14 -16 -17 -17 -18 -18 -17 -16 -16 -17 -17 -17 -17 -17 -17 -17 -18 -18 -18 -17 -17 -17 -17 -17 -17 -17 -17 -17 -18 -18 -17 -17 -15 -14 -13 -12 -14 -12 -12 -13 -13 -13
Height
5838 5839 5840 5841 5843 5841 5841 5843 5844 5845 5846 5846 5846 5846 5848 5848 5848 5850 5848 5848 5848 5851 5855 5856 5858 5860 5863 5866 5868 5869 5871 5874 5875 5878 5880 5881 5881 5880 5880 5881 5883 5885 5886 5885 5886 5886 5884 5884 5885
5837 5837 5838 5839 5841 5840 5840 5841 5843 5844 5844 5845 5845 5845 5846 5845 5846 5846 5847 5846 5847 5847 5849 5851 5854 5856 5859 5862 5864 5866 5868 5870 5872 5875 5878 5880 5881 5881 5881 5881 5883 5885 5886 5886 5886 5887 5886 5886 5887
5836 5837 5838 5838 5839 5839 5839 5840 5841 5842 5843 5843 5843 5843 5843 5843 5843 5843 5843 5843 5844 5845 5845 5845 5848 5851 5854 5857 5859 5862 5865 5866 5869 5871 5875 5878 5880 5881 5881 5881 5883 5884 5885 5887 5885 5888 5888 5888 5889
5835 5836 5838 5838 5839 5839 5839 5839 5840 5840 5841 5841 5841 5842 5842 5841 5841 5840 5838 5839 5841 5842 5843 5842 5844 5845 5848 5851 5854 5856 5859 5862 5865 5868 5871 5874 5877 5880 5880 5883 5882 5884 5885 5885 5887 5888 5888 5889 5889
5833 5834 5836 5837 5837 5837 5837 5838 5838 5838 5838 5838 5837 5838 5839 5836 5838 5836 5833 5834 5836 5838 5838 5838 5838 5839 5841 5843 5847 5849 5853 5856 5859 5863 5866 5870 5874 5878 5879 5881 5882 5882 5884 5885 5885 5887 5888 5890 5890
5831 5832 5833 5834 5834 5834 5835 5835 5835 5835 5835 5835 5834 5832 5834 5833 5834 5832 5831 5829 5830 5831 5832 5831 5832 5829 5831 5832 5836 5841 5843 5849 5853 5857 5861 5864 5868 5872 5876 5878 5880 5881 5882 5884 5886 5886 5888 5889 5891
5829 5829 5830 5830 5830 5831 5831 5831 5832 5831 5831 5831 5830 5829 5829 5829 5828 5828 5826 5826 5825 5824 5824 5822 5823 5821 5820 5821 5825 5829 5835 5838 5844 5850 5854 5859 5862 5866 5872 5876 5877 5879 5881 5882 5884 5886 5887 5888 5890
5826 5827 5827 5827 5827 5827 5827 5827 5827 5827 5826 5826 5825 5825 5824 5823 5822 5822 5821 5821 5819 5818 5815 5812 5810 5810 5808 5806 5812 5817 5823 5828 5833 5840 5846 5851 5856 5860 5864 5870 5874 5877 5879 5880 5882 5884 5887 5887 5889
5823 5824 5823 5823 5823 5824 5824 5823 5823 5822 5822 5821 5820 5820 5820 5820 5818 5816 5815 5814 5811 5809 5807 5805 5800 5795 5792 5790 5795 5801 5810 5818 5822 5829 5837 5842 5849 5853 5858 5863 5867 5870 5874 5877 5878 5882 5885 5886 5888
5820 5820 5819 5819 5820 5820 5820 5820 5819 5818 5816 5816 5815 5814 5814 5814 5812 5811 5809 5806 5804 5799 5798 5796 5788 5780 5774 5771 5774 5781 5793 5804 5813 5817 5827 5833 5839 5843 5852 5856 5861 5864 5868 5872 5875 5877 5881 5885 5886
5816 5815 5815 5815 5815 5815 5815 5814 5814 5813 5813 5812 5811 5809 5807 5807 5805 5805 5801 5797 5793 5791 5789 5784 5777 5765 5756 5750 5751 5760 5773 5787 5800 5807 5816 5821 5830 5836 5840 5847 5852 5855 5861 5868 5872 5875 5877 5880 5883
5811 5811 5811 5811 5809 5809 5809 5809 5808 5807 5807 5807 5807 5804 5802 5799 5797 5794 5792 5788 5787 5785 5778 5772 5763 5752 5739 5730 5731 5739 5751 5768 5783 5793 5802 5814 5819 5819 5825 5837 5843 5848 5854 5860 5866 5869 5872 5874 5877
5806 5806 5805 5805 5804 5804 5802 5802 5803 5801 5801 5800 5800 5798 5795 5794 5790 5787 5786 5784 5782 5777 5770 5761 5750 5740 5728 5715 5712 5721 5733 5750 5764 5777 5788 5800 5806 5813 5820 5828 5834 5839 5845 5851 5857 5861 5866 5870 5871
5801 5801 5800 5800 5800 5799 5798 5796 5796 5796 5795 5794 5793 5791 5789 5788 5786 5783 5781 5779 5775 5767 5761 5751 5741 5727 5713 5703 5699 5704 5714 5729 5746 5760 5772 5784 5794 5801 5806 5815 5821 5826 5831 5839 5847 5852 5857 5862 5866
5796 5796 5796 5794 5794 5792 5792 5791 5790 5790 5788 5786 5785 5784 5783 5781 5780 5777 5773 5770 5765 5758 5751 5742 5729 5716 5705 5694 5689 5690 5699 5712 5727 5743 5755 5767 5776 5786 5796 5797 5805 5814 5823 5833 5838 5841 5846 5854 5859
5790 5790 5789 5788 5786 5786 5786 5784 5783 5781 5781 5779 5778 5776 5774 5773 5772 5769 5765 5761 5757 5750 5743 5733 5722 5709 5697 5686 5679 5680 5688 5698 5712 5727 5739 5750 5764 5776 5781 5791 5796 5803 5811 5820 5831 5835 5839 5846 5850
5784 5783 5783 5783 5781 5780 5778 5776 5773 5775 5774 5772 5771 5769 5767 5765 5763 5761 5757 5753 5748 5742 5735 5726 5716 5703 5691 5680 5673 5670 5673 5686 5697 5711 5725 5736 5750 5764 5772 5776 5783 5790 5799 5807 5817 5824 5831 5837 5842
5778 5777 5775 5774 5777 5773 5770 5772 5764 5763 5765 5763 5761 5759 5758 5756 5753 5752 5748 5743 5739 5734 5726 5718 5710 5697 5686 5677 5667 5661 5664 5674 5686 5697 5713 5724 5734 5748 5758 5767 5776 5778 5788 5796 5803 5810 5817 5827 5833
5769 5769 5767 5765 5765 5764 5762 5765 5762 5756 5755 5753 5750 5749 5748 5746 5744 5742 5739 5734 5729 5724 5718 5711 5703 5694 5683 5674 5665 5656 5655 5662 5677 5685 5699 5712 5719 5733 5745 5755 5763 5769 5775 5783 5792 5801 5805 5813 5821
5762 5761 5760 5759 5756 5755 5754 5756 5754 5750 5747 5744 5741 5739 5738 5737 5735 5732 5730 5726 5721 5716 5712 5705 5698 5690 5681 5671 5663 5655 5651 5654 5663 5678 5687 5700 5710 5717 5732 5742 5751 5758 5763 5767 5779 5788 5794 5802 5809
5754 5753 5749 5749 5748 5745 5745 5747 5749 5744 5740 5735 5733 5730 5728 5728 5726 5723 5721 5717 5714 5709 5704 5699 5692 5685 5679 5670 5663 5655 5651 5649 5655 5667 5679 5690 5700 5704 5715 5729 5740 5747 5755 5756 5766 5777 5781 5789 5797
5744 5742 5740 5737 5736 5736 5737 5726 5740 5736 5734 5727 5723 5720 5719 5718 5716 5713 5711 5709 5705 5701 5697 5691 5687 5682 5675 5668 5661 5656 5650 5647 5649 5655 5669 5680 5690 5696 5703 5714 5727 5735 5742 5748 5751 5760 5769 5775 5784
5735 5732 5729 5726 5723 5722 5730 5718 5724 5724 5722 5719 5714 5710 5709 5708 5707 5703 5700 5699 5696 5692 5688 5684 5679 5674 5669 5663 5658 5654 5649 5646 5644 5649 5655 5667 5678 5684 5690 5701 5712 5724 5731 5737 5741 5747 5755 5761 5770
5722 5720 5718 5714 5711 5708 5713 5709 5711 5713 5710 5709 5705 5700 5698 5698 5698 5695 5691 5689 5686 5683 5680 5676 5672 5668 5663 5659 5655 5649 5647 5642 5639 5640 5647 5653 5665 5674 5681 5688 5697 5710 5714 5722 5728 5733 5742 5749 5757
5712 5709 5706 5701 5698 5696 5696 5692 5702 5700 5699 5698 5697 5689 5687 5687 5687 5686 5681 5678 5676 5673 5670 5667 5664 5661 5658 5653 5650 5645 5640 5640 5636 5634 5636 5643 5648 5659 5666 5675 5685 5696 5703 5710 5716 5720 5729 5734 5743
5700 5700 5697 5686 5685 5682 5681 5681 5687 5687 5687 5686 5684 5678 5676 5675 5675 5675 5671 5667 5666 5663 5660 5658 5655 5652 5649 5646 5643 5639 5634 5631 5631 5627 5627 5628 5634 5642 5651 5659 5668 5678 5685 5694 5702 5708 5715 5723 5732
5689 5687 5685 5681 5675 5669 5671 5671 5675 5678 5674 5673 5670 5666 5662 5663 5663 5662 5659 5656 5653 5651 5649 5646 5644 5642 5639 5636 5633 5630 5626 5622 5620 5619 5618 5617 5620 5625 5632 5642 5651 5659 5670 5675 5686 5696 5701 5711 5718
5676 5674 5673 5671 5665 5658 5659 5657 5663 5665 5661 5659 5657 5652 5650 5651 5651 5649 5647 5643 5640 5637 5634 5632 5629 5628 5627 5624 5621 5618 5616 5613 5608 5607 5608 5606 5606 5608 5615 5621 5632 5642 5652 5658 5668 5680 5687 5695 5706
5663 5661 5659 5656 5654 5650 5644 5647 5650 5651 5644 5641 5641 5638 5637 5636 5636 5636 5633 5629 5626 5623 5620 5618 5615 5613 5610 5608 5606 5603 5602 5599 5597 5594 5593 5593 5592 5592 5593 5600 5609 5618 5632 5639 5650 5661 5672 5678 5693
5649 5649 5647 5642 5642 5637 5633 5640 5643 5635 5631 5626 5625 5625 5625 5623 5621 5620 5618 5615 5611 5608 5606 5602 5600 5597 5594 5592 5590 5587 5585 5582 5579 5578 5576 5577 5576 5576 5576 5578 5585 5594 5603 5619 5629 5640 5652 5663 5675
Wind_Speed
3 3 3 3 3 2 3 3 5 6 6 7 6 7 6 9 10 12 14 16 18 19 23 25 26 26 27 28 30 27 23 24 22 21 19 16 16 18 18 16 14 12 11 11 10 11 24 27 30
2 2 2 2 2 3 3 2 4 6 7 8 10 10 10 13 12 11 12 15 19 21 21 29 31 31 31 31 32 33 28 27 27 24 23 21 19 18 19 19 17 15 13 13 12 10 18 23 27
2 2 2 2 3 2 2 3 5 7 9 11 12 14 14 16 13 13 14 15 16 21 24 26 33 36 36 35 36 36 36 31 30 28 27 25 23 21 21 20 19 18 17 14 15 11 13 22 26
4 2 1 1 1 3 4 6 7 9 11 13 14 14 14 15 15 16 19 17 18 20 23 29 32 35 42 41 40 41 41 38 34 33 31 29 27 26 23 23 22 21 19 18 15 14 13 16 25
4 4 3 4 4 7 8 9 11 11 12 15 18 17 16 20 17 18 21 20 23 22 23 29 32 36 40 48 46 45 45 44 40 35 34 32 31 29 27 25 24 23 23 20 18 18 15 14 19
5 5 7 8 9 10 11 11 12 13 14 15 18 20 20 19 20 22 24 25 27 26 26 31 36 40 43 48 55 50 49 48 47 42 38 35 35 34 32 29 28 26 26 23 22 20 19 17 16
6 7 8 9 10 12 12 13 14 16 16 18 18 19 23 21 22 25 25 28 29 32 33 37 39 43 46 54 59 58 55 53 51 48 44 40 39 37 35 33 31 30 28 27 25 22 22 21 19
7 8 9 10 11 13 14 15 16 17 17 18 19 19 22 24 24 25 27 28 29 33 37 43 49 48 50 55 60 66 61 59 56 55 48 45 43 42 40 38 36 33 32 31 29 27 25 24 22
10 10 10 12 14 16 16 16 16 18 18 19 20 21 22 23 24 27 29 31 33 35 38 42 51 54 52 55 62 69 69 64 60 58 52 49 48 45 43 43 39 39 36 35 33 30 28 26 25
12 13 13 15 16 17 16 16 16 17 18 20 21 23 24 24 25 28 31 33 35 37 41 46 53 55 52 56 59 70 76 70 65 59 53 55 50 50 47 45 44 43 42 38 36 35 32 28 27
15 15 14 16 19 19 19 18 17 17 17 19 21 24 24 26 28 29 32 35 38 41 43 47 51 53 51 55 62 69 77 77 71 65 65 53 54 49 56 50 48 47 47 41 37 36 35 33 30
17 17 16 18 20 21 21 20 20 20 20 20 21 24 26 27 30 32 34 36 38 42 46 50 52 52 52 47 60 71 77 82 76 72 65 57 58 65 50 55 53 50 49 46 43 41 39 38 35
19 20 20 21 21 22 23 23 22 22 23 24 24 25 27 27 29 33 34 36 40 41 44 48 53 55 51 44 54 73 78 86 82 77 70 66 58 61 66 62 57 54 54 52 48 46 44 42 40
21 21 22 22 22 23 25 26 25 25 26 26 27 28 29 29 28 32 35 37 39 42 45 47 52 55 54 43 47 69 81 90 88 83 76 67 67 68 54 68 64 62 61 59 54 51 49 47 45
24 24 25 26 25 26 26 28 27 27 28 29 30 30 30 31 30 33 36 39 40 42 45 48 51 53 54 46 38 61 80 91 91 87 84 84 65 66 74 60 56 67 64 60 60 58 55 51 49
24 24 25 25 27 28 29 30 29 30 30 32 33 33 33 33 33 34 37 40 40 42 45 46 49 53 54 48 34 50 71 91 94 92 91 84 75 71 70 71 74 74 67 64 61 61 59 55 52
21 21 22 23 27 29 31 31 34 30 30 33 33 35 35 35 34 34 38 40 41 42 43 46 48 52 53 48 40 38 61 87 95 95 93 84 78 74 76 68 66 72 71 69 65 65 63 59 55
20 23 24 27 24 28 31 28 37 37 33 34 36 37 37 38 36 35 39 40 41 43 43 45 47 51 53 50 45 32 49 74 94 98 95 89 79 72 73 78 62 72 76 72 71 68 68 64 60
28 29 31 34 34 33 34 29 33 38 38 38 39 39 40 39 39 37 39 40 41 42 44 44 46 49 51 50 46 35 36 60 92 96 98 94 74 77 74 80 66 74 72 80 77 73 72 69 66
35 35 37 37 38 38 38 31 31 36 38 39 41 41 40 40 40 39 39 40 40 41 43 44 45 47 50 49 47 41 29 46 77 98 97 100 93 76 73 70 66 78 77 67 75 73 72 71 70
38 39 41 43 42 43 41 37 31 34 37 41 42 42 41 40 41 42 39 39 39 40 42 43 45 46 46 49 44 41 32 34 59 93 98 97 98 91 76 65 73 69 79 73 76 75 77 74 72
42 42 44 46 48 47 44 51 33 34 36 42 44 44 42 41 42 44 40 39 39 40 40 43 44 44 46 46 45 40 36 28 43 76 101 98 96 94 84 77 74 62 74 85 81 78 75 77 76
44 45 46 49 52 52 44 53 43 36 37 39 42 43 42 41 42 45 44 41 41 40 41 42 44 46 46 47 47 42 38 32 32 57 90 101 99 96 91 90 67 68 79 79 83 82 64 68 80
47 48 50 52 54 56 51 50 45 37 37 34 37 43 43 42 42 44 45 43 43 42 42 42 43 45 47 48 47 46 40 36 30 38 73 101 104 104 102 96 84 77 63 67 86 91 83 72 80
49 50 51 56 56 56 54 53 41 38 36 34 35 45 43 44 43 43 43 45 44 44 44 45 45 45 46 49 49 47 44 39 34 30 47 85 105 107 106 100 92 80 75 71 89 91 89 75 73
51 49 48 55 56 56 54 52 44 40 36 36 40 46 46 46 43 43 45 46 46 47 46 46 47 48 48 48 50 48 47 43 38 36 33 57 94 110 111 106 100 86 70 76 82 84 84 84 86
48 47 47 49 52 56 53 50 44 40 43 38 39 44 49 48 47 45 46 48 48 48 49 49 49 50 50 51 51 50 48 49 44 39 36 39 70 105 115 115 110 109 90 79 69 68 56 78 86
47 47 47 47 51 55 55 55 48 46 46 42 41 48 52 51 50 49 47 51 51 52 53 53 53 52 50 50 51 50 52 50 51 47 41 39 47 79 109 120 118 116 106 93 82 74 69 64 74
48 49 49 50 51 53 58 57 52 47 50 51 49 54 54 55 55 52 51 53 53 54 55 54 54 53 52 51 52 53 54 55 52 52 49 44 44 54 84 112 121 122 119 114 101 90 72 63 69
53 51 48 49 50 53 58 54 48 50 52 51 52 54 56 56 56 53 52 51 53 54 54 54 53 54 54 53 53 56 57 56 55 54 55 52 47 51 58 89 117 124 129 120 112 98 90 69 66
Wind_Direction
107 85 85 115 115 130 150 78 58 36 25 21 2 341 330 315 321 312 299 299 303 282 260 253 252 242 233 236 237 234 232 228 224 232 227 223 209 186 176 164 163 155 145 130 126 145 130 125 118
335 38 62 105 84 109 102 67 39 14 9 5 354 339 336 326 320 319 310 309 298 294 287 261 254 250 240 232 236 238 234 233 224 224 230 227 218 206 187 175 171 171 158 147 139 143 135 131 126
312 332 82 117 102 75 40 356 352 355 354 347 341 339 330 329 332 318 300 289 302 294 291 281 263 252 248 238 233 236 236 231 229 222 225 229 223 215 202 187 183 181 169 164 149 150 141 139 136
286 259 151 156 9 348 335 324 327 333 338 335 331 329 330 325 326 316 302 297 293 298 299 294 287 268 250 246 235 230 236 234 228 224 221 225 226 222 211 201 191 186 184 170 163 157 153 149 142
279 268 300 286 307 309 310 314 315 315 321 322 321 322 329 319 325 313 306 301 297 300 299 303 298 287 269 247 241 230 230 234 230 225 222 220 225 226 221 214 204 197 191 182 175 166 164 162 148
282 286 289 293 302 303 303 309 308 310 313 314 317 316 323 321 317 314 311 303 302 299 301 303 291 293 275 258 242 235 224 229 232 225 222 220 221 224 223 220 213 210 197 192 186 177 172 165 161
299 296 300 304 302 302 305 307 308 310 313 311 313 312 316 318 315 314 313 307 303 301 301 305 304 287 281 264 247 236 230 223 228 228 224 222 219 222 226 224 219 217 209 200 193 190 179 175 167
317 307 306 307 307 306 307 306 309 309 311 312 313 312 313 315 315 314 312 310 304 303 303 299 308 295 280 267 253 238 230 223 222 227 225 223 223 219 221 225 224 222 216 210 201 196 193 182 177
306 308 315 313 310 306 306 306 308 310 312 312 312 311 310 310 313 313 313 314 309 304 303 299 310 300 277 267 254 242 229 226 217 222 223 224 223 222 221 223 223 223 220 218 208 202 201 194 186
302 301 311 311 308 308 309 306 308 311 313 314 313 312 310 309 310 311 311 313 312 310 306 311 310 303 281 266 250 241 229 224 219 216 218 224 217 221 221 223 224 224 224 220 218 207 204 206 196
295 298 301 303 304 307 308 308 308 307 311 312 312 311 309 307 309 309 314 315 317 312 305 307 311 314 292 276 244 235 230 220 218 213 214 213 216 224 219 221 222 224 223 224 223 222 208 206 208
294 295 298 300 302 306 307 307 308 306 306 307 312 312 310 311 314 317 319 319 317 313 306 309 319 320 313 286 243 226 224 220 217 213 215 216 218 227 215 220 221 223 223 224 224 222 221 211 208
292 293 296 298 300 301 305 305 305 303 301 304 308 309 310 311 313 317 318 316 316 317 314 316 322 325 324 296 243 224 218 218 214 212 210 209 215 213 221 221 222 224 225 224 223 224 222 222 212
288 291 292 293 293 295 298 300 303 301 299 299 303 303 306 309 310 312 315 315 317 320 318 321 324 329 330 315 250 228 214 213 211 211 208 208 214 213 217 225 222 223 224 222 222 223 224 221 222
283 284 286 288 292 294 296 295 296 297 299 299 301 300 302 304 307 309 312 316 320 321 324 325 330 335 336 330 268 234 217 211 210 210 208 206 214 208 218 218 216 224 225 227 225 223 223 223 222
283 284 286 291 295 296 294 293 294 297 297 297 297 298 300 303 305 307 311 315 318 323 327 330 335 338 340 336 301 241 228 210 210 210 209 209 208 217 219 222 220 223 223 226 229 228 225 224 222
287 291 292 294 297 296 295 296 296 294 296 294 293 293 296 298 302 304 309 313 317 322 327 331 336 341 341 338 325 258 232 216 210 210 209 206 207 210 213 219 223 213 220 224 224 230 228 226 225
288 292 295 300 305 299 297 295 294 297 296 295 295 294 295 297 300 303 307 311 315 320 326 331 337 343 343 344 333 280 241 226 213 210 210 205 205 208 215 218 214 209 226 223 224 224 227 227 227
293 296 296 300 305 307 307 298 290 294 296 296 297 297 295 295 299 301 305 310 314 318 325 329 334 340 344 345 338 319 249 231 218 212 211 207 201 211 214 215 213 221 218 223 224 225 226 225 226
288 292 292 294 297 301 306 302 296 293 294 295 295 294 292 292 296 298 303 307 313 315 320 326 331 337 341 344 344 336 276 241 222 216 214 214 209 204 212 218 221 219 211 213 217 225 225 226 225
286 289 290 291 293 296 301 300 294 290 291 291 293 292 290 290 293 295 300 305 310 313 317 323 329 332 338 340 346 338 322 258 230 218 217 215 211 212 213 217 220 210 214 219 213 219 226 226 228
285 286 288 289 291 292 298 297 295 292 288 288 291 290 289 289 290 294 299 302 308 310 315 319 323 327 330 336 339 342 330 294 245 222 219 220 216 217 216 216 221 227 214 219 212 212 223 227 228
285 284 286 288 290 291 293 291 295 294 288 289 289 287 287 287 289 293 297 300 305 307 311 316 319 323 326 329 333 337 335 320 268 236 220 221 222 221 220 216 219 233 227 222 218 215 208 228 226
283 284 286 288 289 290 292 290 293 292 291 288 285 285 287 287 287 291 295 297 301 305 306 311 315 317 320 322 324 327 331 327 308 255 229 221 223 223 220 221 222 231 234 232 227 220 216 220 226
282 284 287 288 289 290 291 289 294 294 294 291 287 285 287 286 288 291 294 299 300 302 303 306 311 312 313 315 315 318 321 324 315 293 245 230 223 225 221 223 222 227 228 223 213 220 218 216 224
281 284 285 287 289 290 291 293 298 299 297 296 290 286 287 288 290 293 295 297 298 299 301 301 305 308 308 308 308 310 313 314 315 304 277 240 229 225 226 222 225 220 211 217 217 210 215 220 222
283 283 283 283 286 287 290 293 294 296 295 298 293 290 288 289 291 293 293 297 297 299 299 301 303 303 302 302 302 303 304 305 305 303 292 265 236 229 227 230 226 229 225 208 214 217 212 219 223
281 281 282 282 284 286 288 288 294 297 295 295 297 289 287 290 292 294 295 295 298 299 300 302 301 299 297 295 295 295 297 296 296 295 291 281 257 237 231 229 228 229 226 215 216 224 228 228 229
279 281 282 281 281 283 286 291 295 301 298 296 294 289 292 293 294 297 298 298 298 299 300 299 298 297 296 294 292 289 292 291 289 288 287 282 271 254 236 233 230 231 230 228 227 225 228 230 229
281 282 279 278 279 279 282 291 298 296 293 295 291 290 291 294 297 298 297 297 297 300 300 297 296 296 296 291 287 286 288 288 286 285 285 283 276 266 253 236 234 231 233 234 227 225 232 229 234